Regional Weather Roundup
Issued by NWS

Home | Current Version | Previous Version | Graphics & Text | Print | Product List | Glossary On
Versions: 1 2 3 4 5 6 7 8 9 10 11 12 13 14 15 16 17 18 19 20 21 22 23 24 25 26 27
000
ASUS45 KTFX 241410
RWRMT
MONTANA REGIONAL WEATHER ROUNDUP
NATIONAL WEATHER SERVICE GREAT FALLS MT
800 AM MDT SAT JUN 24 2017

NOTE: "FAIR" INDICATES FEW OR NO CLOUDS BELOW 12000 FEET WITH NO
SIGNIFICANT WEATHER AND/OR OBSTRUCTIONS TO VISIBILITY.

MTZ001>007-043-241500-
WEST OF THE DIVIDE

CITY           SKY/WX    TMP DP  RH WIND       PRES   REMARKS
KALISPELL        N/A     58  46  64 N8        30.28S
MISSOULA       SUNNY     56  41  57 VRB3      30.31R
BUTTE          SUNNY     48  36  63 CALM      30.39R
MULLAN PASS    SUNNY     56  32  40 CALM      30.36R
ANACONDA         N/A     55  37  50 CALM      30.36S
DEER LODGE       N/A     52  39  62 CALM      30.38S
EUREKA           N/A     55  43  62 MISG      30.31R
HAMILTON         N/A     55  39  54 S5        30.31S
$$

MTZ008-052>055-241500-
SOUTHWEST MONTANA

CITY           SKY/WX    TMP DP  RH WIND       PRES   REMARKS
BOZEMAN        SUNNY     54  38  54 CALM      30.37R
DILLON         SUNNY     50  38  63 SW3       30.36R
W YELLOWSTONE  SUNNY     45  32  61 CALM      30.41R
ENNIS          SUNNY     50  36  57 CALM      30.42R
THREE FORKS      N/A     51  42  71 CALM      30.31R
$$

MTZ009-010-012-014-046-048-049-054-241500-
EAST SLOPES AND CENTRAL MONTANA

CITY           SKY/WX    TMP DP  RH WIND       PRES   REMARKS
CUT BANK       SUNNY     54  47  77 CALM      30.35R
GREAT FALLS    SUNNY     53  40  61 SW7       30.35R
MALMSTROM AFB  SUNNY     55  45  68 SW7       30.35R
HELENA         SUNNY     54  39  57 CALM      30.35R
CHOTEAU          N/A     55  41  58 CALM      30.37R
CONRAD           N/A     51  49  93 NW1       30.34R
$$

MTZ011-013-016-021-045-047-050-051-241500-
NORTH CENTRAL MONTANA

CITY           SKY/WX    TMP DP  RH WIND       PRES   REMARKS
HAVRE          PTSUNNY   49  40  71 SW3       30.33R
LEWISTOWN      SUNNY     55  42  61 CALM      30.35R
N BAR RANCH      N/A     59  34  38 NW10      30.38R
CHINOOK          N/A     52  43  71 CALM      30.32S
FORT BENTON      N/A     63  46  55 MISG      30.35R
$$

MTZ017>020-022>027-061-062-241500-
NORTHEAST MONTANA

CITY           SKY/WX    TMP DP  RH WIND       PRES   REMARKS
GLASGOW        SUNNY     54  36  50 SW3       30.30R
JORDAN           N/A     60  35  39 VRB5      30.29R
SIDNEY         SUNNY     55  35  47 NW17      30.28R
WOLF POINT     SUNNY     53  36  52 CALM      30.30R
MALTA          SUNNY     54  41  62 SW5       30.31R
PLENTYWOOD       N/A     52  37  58 NW15      30.27R
POPLAR           N/A     52  37  58 W3        30.30R
$$

MTZ028>42-056>058-241500-
SOUTHCENTRAL AND SOUTHEAST MONTANA

CITY           SKY/WX    TMP DP  RH WIND       PRES   REMARKS
BAKER          MOSUNNY   53  32  44 N7        30.29R
BILLINGS       MOSUNNY   55  42  61 SW8       30.34R
LIVINGSTON     SUNNY     49  38  65 W5        30.37R
MILES CITY     SUNNY     59  31  34 NE7       30.29R
BIG TIMBER     SUNNY     54  39  58 W10       30.39R
FORSYTH          N/A     54  36  50 W8        30.29R
ROUNDUP          N/A     57  37  47 S5        30.22R
$$

REGIONAL REPORTS...DAKOTAS

CITY           SKY/WX    TMP DP  RH WIND       PRES   REMARKS
WILLISTON      SUNNY     52  38  58 N18G28    30.26R
MINOT          MOSUNNY   50  40  68 NW16      30.15R
DICKINSON      SUNNY     52  33  48 NW17G25   30.21R
WATFORD CITY     N/A     50  39  66 N18       30.25R
BISMARCK       MOSUNNY   55  40  56 NW17G26   30.16R
GRAND FORKS    PTSUNNY   56  47  71 NW16G24   30.00R
FARGO          LGT RAIN  52  48  86 NW15      30.02R
BUFFALO SD       N/A     57  33  40 N17       30.19R
RAPID CITY     SUNNY     65  30  27 NW12      30.26R
$$

REGIONAL REPORTS...WYOMING/IDAHO/WASHINGTON

CITY           SKY/WX    TMP DP  RH WIND       PRES   REMARKS
GILLETTE       CLOUDY    54  38  54 CALM      30.32R
SHERIDAN       CLOUDY    53  44  71 CALM      30.33R
BUFFALO WY     CLOUDY    53  36  52 N3        30.36R
CODY           SUNNY     58  35  42 CALM      30.38S
YELLOWSTONE LA   N/A     43  32  65 SE3       30.46R
IDAHO FALLS    SUNNY     52  45  77 N5        30.28R
SALMON         SUNNY     48  39  71 CALM      30.29S
BOISE          SUNNY     61  41  47 S5        30.18R
SPOKANE        SUNNY     60  44  55 NE9       30.24R
$$

REGIONAL REPORTS...ALBERTA

CITY           SKY/WX    TMP DP  RH WIND       PRES   REMARKS
EDMONTON       PTSUNNY   55  48  76 NW6       30.27S
CALGARY        MOSUNNY   54  43  66 N6        30.34R
LETHBRIDGE     MOSUNNY   57  45  62 W7        30.33R
MEDICINE HAT   MOSUNNY   55  48  76 S3        30.30R
WATERTON GATE    N/A     50  43  76 SW3         N/A
$$

REGIONAL REPORTS...SASKATCHEWAN

CITY           SKY/WX    TMP DP  RH WIND       PRES   REMARKS
SWIFT CURRENT  SUNNY     50  43  76 W9        30.28R
REGINA         PTSUNNY   46  43  87 NW8       30.27S
SASKATOON      PTSUNNY   50  41  71 S6        30.27S
CYPRESS HILLS    N/A     54  36  50 NW5         N/A
VAL MARIE        N/A     52  43  71 N1          N/A
ROCKGLEN         N/A     50  36  57 N5          N/A
ASSINIBOIA       N/A     57  46  67 NW7         N/A
$$




USA.gov is the U.S. government's official web portal to all federal, state and local government web resources and services.